TimeHST,TemperatureF,Dew PointF,Humidity,Sea Level PressureIn,VisibilityMPH,Wind Direction,Wind SpeedMPH,Gust SpeedMPH,PrecipitationIn,Events,Conditions,WindDirDegrees,DateUTC
12:53 AM,70.0,66.0,87,30.02,10.0,West,5.8,-,N/A,,Clear,270,2012-12-06 10:53:00
1:53 AM,69.1,64.9,87,30.01,10.0,WNW,6.9,-,N/A,,Scattered Clouds,290,2012-12-06 11:53:00
2:24 AM,69.8,64.4,83,30.01,10.0,WNW,6.9,-,N/A,,Mostly Cloudy,290,2012-12-06 12:24:00
2:53 AM,69.1,64.9,87,29.99,10.0,WNW,6.9,-,N/A,,Scattered Clouds,290,2012-12-06 12:53:00
3:53 AM,69.1,64.0,84,29.99,10.0,West,6.9,-,N/A,,Clear,270,2012-12-06 13:53:00
4:53 AM,69.1,64.0,84,29.98,10.0,West,8.1,-,N/A,,Clear,280,2012-12-06 14:53:00
5:53 AM,69.1,64.0,84,29.99,10.0,West,8.1,-,N/A,,Clear,280,2012-12-06 15:53:00
6:53 AM,66.9,63.0,87,30.01,10.0,WNW,3.5,-,N/A,,Clear,300,2012-12-06 16:53:00
7:53 AM,69.1,64.9,87,30.02,10.0,West,4.6,-,N/A,,Clear,280,2012-12-06 17:53:00
8:53 AM,73.9,68.0,82,30.04,10.0,WNW,3.5,-,N/A,,Clear,290,2012-12-06 18:53:00
9:11 AM,75.2,68.0,78,30.05,10.0,West,4.6,-,N/A,,Mostly Cloudy,280,2012-12-06 19:11:00
9:53 AM,79.0,70.0,74,30.03,10.0,ENE,5.8,-,N/A,,Scattered Clouds,60,2012-12-06 19:53:00
10:22 AM,80.6,69.8,70,30.03,10.0,ENE,9.2,-,N/A,,Mostly Cloudy,70,2012-12-06 20:22:00
10:35 AM,80.6,68.0,65,30.03,10.0,ENE,8.1,-,N/A,,Scattered Clouds,70,2012-12-06 20:35:00
10:53 AM,80.1,68.0,67,30.01,10.0,ENE,8.1,-,N/A,,Partly Cloudy,60,2012-12-06 20:53:00
11:42 AM,80.6,68.0,65,30.00,10.0,ENE,10.4,-,N/A,,Mostly Cloudy,70,2012-12-06 21:42:00
11:49 AM,80.6,68.0,65,30.00,10.0,ENE,9.2,-,N/A,,Mostly Cloudy,60,2012-12-06 21:49:00
11:53 AM,79.0,68.0,69,29.99,10.0,ENE,10.4,-,N/A,,Mostly Cloudy,70,2012-12-06 21:53:00
12:53 PM,80.1,68.0,67,29.95,10.0,East,10.4,-,N/A,,Overcast,80,2012-12-06 22:53:00
1:13 PM,80.6,66.2,61,29.95,10.0,ENE,9.2,-,N/A,,Scattered Clouds,70,2012-12-06 23:13:00
1:53 PM,81.0,66.9,62,29.92,10.0,ENE,6.9,-,N/A,,Mostly Cloudy,60,2012-12-06 23:53:00
2:02 PM,80.6,66.2,61,29.93,10.0,NE,3.5,-,N/A,,Mostly Cloudy,50,2012-12-07 00:02:00
2:10 PM,80.6,68.0,65,29.92,10.0,Variable,3.5,-,N/A,,Mostly Cloudy,0,2012-12-07 00:10:00
2:53 PM,80.1,68.0,67,29.91,10.0,ESE,6.9,-,N/A,,Scattered Clouds,120,2012-12-07 00:53:00
3:16 PM,80.6,69.8,70,29.91,10.0,East,8.1,-,N/A,,Mostly Cloudy,90,2012-12-07 01:16:00
3:23 PM,80.6,69.8,70,29.91,10.0,East,6.9,-,N/A,,Mostly Cloudy,100,2012-12-07 01:23:00
3:53 PM,78.1,69.1,74,29.90,10.0,East,5.8,-,N/A,,Mostly Cloudy,100,2012-12-07 01:53:00
4:14 PM,78.8,68.0,69,29.90,10.0,ESE,4.6,-,N/A,,Partly Cloudy,110,2012-12-07 02:14:00
4:53 PM,78.1,66.9,68,29.90,10.0,SSE,6.9,-,N/A,,Clear,160,2012-12-07 02:53:00
5:53 PM,75.9,68.0,76,29.90,10.0,Calm,Calm,-,N/A,,Partly Cloudy,0,2012-12-07 03:53:00
6:53 PM,75.9,69.1,79,29.91,10.0,South,5.8,-,N/A,,Mostly Cloudy,170,2012-12-07 04:53:00
7:14 PM,75.2,68.0,78,29.93,10.0,SSE,8.1,-,N/A,,Mostly Cloudy,160,2012-12-07 05:14:00
7:53 PM,75.0,68.0,79,29.94,10.0,South,5.8,-,N/A,,Scattered Clouds,180,2012-12-07 05:53:00
8:53 PM,75.9,68.0,76,29.95,10.0,SE,8.1,-,N/A,,Mostly Cloudy,140,2012-12-07 06:53:00
9:53 PM,75.0,69.1,82,29.95,10.0,SSE,4.6,-,N/A,,Mostly Cloudy,150,2012-12-07 07:53:00
10:10 PM,75.2,68.0,78,29.96,10.0,SSE,4.6,-,N/A,,Mostly Cloudy,160,2012-12-07 08:10:00
10:37 PM,75.2,68.0,78,29.95,10.0,South,4.6,-,N/A,,Scattered Clouds,190,2012-12-07 08:37:00
10:53 PM,73.0,66.9,81,29.94,10.0,West,3.5,-,N/A,,Mostly Cloudy,260,2012-12-07 08:53:00
11:16 PM,73.4,68.0,83,29.95,10.0,West,3.5,-,N/A,,Mostly Cloudy,260,2012-12-07 09:16:00
11:53 PM,72.0,66.9,84,29.94,10.0,West,4.6,-,N/A,,Mostly Cloudy,260,2012-12-07 09:53:00